Location: �chenoz-la-M�line
(47.6009°N, 6.1354°E)
Time: 13:05:51
(UTC+00:00)

ATLAS CENTAUR R/B - Pass Details

Date: 27 January 2021
Orbit: 471 x 674 km, 64.6° (Epoch: 28 February)

Event Time Altitude Azimuth Distance (km) Brightness Sun altitude
Exits shadow 04:32:04 36° 70° (ENE) 769 2.5 -26.2°
Drops below altitude 10° 04:34:29 10° 47° (NE) 1,644 4.3 -25.8°
Sets 04:36:40 0° 42° (NE) 2,534 5.3 -25.4°
